Weather History for Sault Ste Marie, MI

Change the Weather History Date:

Friday, November 25, 2011

  Actual Average Record
Temperature  
Mean Temperature 49 °F 30 °F  
Max Temperature 51 °F 36 °F 53 °F (1908)
Min Temperature 46 °F 25 °F 0 °F (1919)
Degree Days  
Heating Degree Days 16 35  
Month to date heating degree days 636 747  
Since 1 July heating degree days 1347 1752  
Moisture  
Dew Point 41 °F    
Average Humidity 79    
Maximum Humidity 86    
Minimum Humidity 71    
Precipitation  
Precipitation 0.00 in 0.11 in 0.79 in (1952)
Month to date precipitation 3.59 2.82  
Year to date precipitation 35.71 29.61  
Snow  
Snow 0.00 in 0.70 in 5.70 in (1933)
Month to date snowfall 6.7 11.2  
Since 1 July snowfall 6.7 12.8  
Snow Depth 0.00 in    
Sea Level Pressure  
Sea Level Pressure 29.82 in    
Wind  
Wind Speed 9 mph (SW)    
Max Wind Speed 22 mph    
Max Gust Speed 30 mph    
Visibility 8 miles    
Events      
T = Trace of Precipitation, MM = Missing Value Source: NWS Daily Summary

Daily Weather History Graph

Daily Weather History Graph

Search for Another Location

Airport:

Trip Planner

Search our weather history database for the weather conditions in past years. The results will help you decide how hot, cold, wet, or windy it might be!

Date:

Astronomy

Nov. 25, 2011 Rise Set
Actual Time 7:52 AM EST 4:55 PM EST
Civil Twilight 7:18 AM EST 5:29 PM EST
Nautical Twilight 6:41 AM EST 6:06 PM EST
Astronomical Twilight 6:05 AM EST 6:42 PM EST
Moon 8:23 AM EST (11/25) 5:18 PM EST (11/25)
Length of Visible Light 10h 10m
Length of Day
9h 03m
New Moon, 0% of the Moon is Illuminated
Nov 25
New Moon
Dec 2
First Quarter
Dec 10
Full
Dec 17
Last Quarter
Dec 24
New

Hourly Weather History & Observations

Time (EST) Temp. Windchill Dew Point Humidity Pressure Visibility Wind Dir Wind Speed Gust Speed Precip Events Conditions
12:55 AM 46.9 °F - 41.0 °F 80% 29.83 in 5.0 mi SW 20.7 mph 26.5 mph N/A   Haze
1:55 AM 46.9 °F - 41.0 °F 80% 29.82 in 5.0 mi WSW 17.3 mph 24.2 mph N/A   Haze
2:55 AM 46.9 °F - 42.1 °F 83% - 5.0 mi SW 12.7 mph 23.0 mph N/A   Haze
3:55 AM 46.9 °F - 42.1 °F 83% - 6.0 mi WSW 17.3 mph 26.5 mph N/A   Haze
4:55 AM 46.9 °F - 42.1 °F 83% - 6.0 mi SW 12.7 mph - N/A   Haze
5:55 AM 46.9 °F - 41.0 °F 80% - 7.0 mi WSW 11.5 mph - N/A   Overcast
6:55 AM 46.9 °F - 41.0 °F 80% - 8.0 mi WSW 9.2 mph - N/A   Overcast
7:55 AM 46.9 °F - 41.0 °F 80% 29.78 in 8.0 mi WSW 12.7 mph - N/A   Overcast
8:55 AM 46.9 °F - 41.0 °F 80% 29.79 in 7.0 mi WSW 12.7 mph 18.4 mph N/A   Overcast
9:55 AM 48.9 °F - 41.0 °F 74% 29.78 in 9.0 mi SW 9.2 mph - N/A   Overcast
10:08 AM 48.2 °F - 41.0 °F 76% 29.77 in 9.0 mi WSW 11.5 mph - N/A   Overcast
10:55 AM 50.0 °F - 41.0 °F 71% 29.78 in 10.0 mi WSW 15.0 mph 20.7 mph N/A   Overcast
11:55 AM 50.0 °F - 41.0 °F 71% 29.76 in 10.0 mi SW 13.8 mph 18.4 mph N/A   Overcast
12:55 PM 50.0 °F - 41.0 °F 71% 29.77 in 10.0 mi WSW 9.2 mph - N/A   Overcast
1:55 PM 50.0 °F - 41.0 °F 71% 29.77 in 10.0 mi SW 8.1 mph - N/A   Overcast
2:55 PM 50.0 °F - 41.0 °F 71% 29.76 in 10.0 mi SSW 10.4 mph - N/A   Overcast
3:55 PM 48.9 °F - 41.0 °F 74% 29.78 in 10.0 mi SSW 9.2 mph - N/A   Overcast
4:55 PM 48.0 °F - 39.9 °F 74% 29.81 in 10.0 mi WSW 8.1 mph - N/A   Overcast
5:55 PM 48.0 °F - 39.9 °F 74% 29.83 in 10.0 mi SW 9.2 mph - N/A   Overcast
6:55 PM 46.9 °F - 39.9 °F 77% 29.86 in 10.0 mi Variable 3.5 mph - N/A   Overcast
7:55 PM 46.9 °F - 41.0 °F 80% 29.87 in 9.0 mi Calm Calm - N/A   Overcast
8:55 PM 46.0 °F - 41.0 °F 83% 29.88 in 8.0 mi Calm Calm - N/A   Overcast
9:55 PM 46.0 °F - 41.0 °F 83% 29.91 in 7.0 mi Calm Calm - N/A   Overcast
10:55 PM 46.0 °F 44.8 °F 41.0 °F 83% 29.90 in 8.0 mi ESE 3.5 mph - N/A   Overcast
11:14 PM 46.4 °F - 41.0 °F 81% 29.89 in 7.0 mi Calm Calm - N/A   Overcast
11:55 PM 46.0 °F - 41.0 °F 83% 29.91 in 7.0 mi Calm Calm - N/A   Overcast